Madison, WI

5:00 AM CST on December 16, 2019 (GMT -0600)
Dane County Regional-Truax

Weather History for KMSN - June, 2019

Change the Weather History Date:

Sunday, June 9, 2019

  Actual Average Record
Temperature  
Mean Temperature 70 °F 65 °F  
Max Temperature 77 °F 76 °F 93 °F (1911)
Min Temperature 62 °F 54 °F 34 °F (1977)
Degree Days  
Heating Degree Days 0 3  
Month to date heating degree days 14 33  
Since 1 June heating degree days 14 33  
Since 1 July heating degree days 7473 7306  
Cooling Degree Days 5 3  
Month to date cooling degree days 25 20  
Year to date cooling degree days 45 50  
Since 1 June cooling degree days 25 20  
Growing Degree Days 20 (Base 50)    
Moisture  
Dew Point 59 °F    
Average Humidity 71    
Maximum Humidity 87    
Minimum Humidity 55    
Precipitation  
Precipitation 0.02 in 0.15 in 2.46 in (1974)
Month to date precipitation 1.05 1.34  
Year to date precipitation 16.86 13.17  
Snow  
Snow 0.00 in 0.00 in 0.00 in (2018)
Month to date snowfall 0.0 0.0  
Since 1 June snowfall 0.0 0.0  
Since 1 July snowfall 57.2 50.9  
Snow Depth 0.00 in    
Sea Level Pressure  
Sea Level Pressure 29.97 in    
Wind  
Wind Speed 4 mph (NE)    
Max Wind Speed 18 mph    
Max Gust Speed 30 mph    
Visibility 10 miles    
Events Rain    
T = Trace of Precipitation, MM = Missing Value Source: NWS Daily Summary

Daily Weather History Graph

Daily Weather History Graph

Search for Another Location

Airport or City:

Astronomy

Jun. 09, 2019 Rise Set
Actual Time 5:17 AM CDT 8:35 PM CDT
Civil Twilight 4:42 AM CDT 9:10 PM CDT
Nautical Twilight 3:57 AM CDT 9:56 PM CDT
Astronomical Twilight 3:01 AM CDT 10:52 PM CDT
Moon 12:02 PM CDT (6/9) 1:10 AM CDT (6/9)
Length of Visible Light 16h 28m
Length of Day
15h 18m
Waxing Crescent, 44% of the Moon is Illuminated
Jun 9
Waxing Crescent
Jun 10
First Quarter
Jun 17
Full
Jun 25
Last Quarter
Jul 2
New

Hourly Weather History & Observations

Time (CDT) Temp. Dew Point Humidity Pressure Visibility Wind Dir Wind Speed Gust Speed Precip Events Conditions
12:53 AM 68.0 °F 52.0 °F 56% 29.99 in 10.0 mi ENE 3.5 mph - N/A   Scattered Clouds
1:53 AM 63.0 °F 55.0 °F 75% 29.98 in 10.0 mi NW 3.5 mph - N/A   Clear
2:53 AM 63.0 °F 54.0 °F 72% 29.97 in 10.0 mi North 3.5 mph - N/A   Clear
3:53 AM 64.0 °F 54.0 °F 70% 29.96 in 10.0 mi North 3.5 mph - N/A   Mostly Cloudy
4:53 AM 63.0 °F 54.0 °F 72% 29.96 in 10.0 mi Calm Calm - N/A   Clear
5:53 AM 64.0 °F 54.0 °F 70% 29.96 in 10.0 mi East 3.5 mph - 0.00 in Rain Light Rain
6:53 AM 64.9 °F 54.0 °F 68% 29.97 in 10.0 mi ESE 3.5 mph - 0.00 in   Mostly Cloudy
7:53 AM 64.9 °F 55.9 °F 73% 29.99 in 10.0 mi ESE 6.9 mph - N/A   Mostly Cloudy
8:43 AM 64.9 °F 57.9 °F 78% 30.00 in 10.0 mi SE 4.6 mph - N/A   Overcast
8:53 AM 64.9 °F 57.9 °F 78% 29.99 in 10.0 mi ESE 6.9 mph - N/A   Overcast
9:15 AM 66.9 °F 60.1 °F 79% 29.99 in 10.0 mi ESE 8.1 mph - N/A   Overcast
9:46 AM 66.0 °F 61.0 °F 84% 29.99 in 10.0 mi ESE 4.6 mph - N/A   Overcast
9:53 AM 66.0 °F 61.0 °F 84% 29.99 in 10.0 mi ESE 5.8 mph - N/A   Overcast
10:13 AM 66.0 °F 61.0 °F 84% 30.00 in 10.0 mi ESE 4.6 mph - N/A   Overcast
10:53 AM 66.9 °F 62.1 °F 84% 29.98 in 10.0 mi East 5.8 mph - N/A   Overcast
11:53 AM 68.0 °F 61.0 °F 78% 29.99 in 10.0 mi Calm Calm - N/A   Overcast
12:45 PM 69.1 °F 62.1 °F 78% 29.98 in 10.0 mi East 3.5 mph - N/A   Overcast
12:53 PM 70.0 °F 61.0 °F 73% 29.97 in 10.0 mi Calm Calm - N/A   Overcast
1:53 PM 72.0 °F 61.0 °F 68% 29.96 in 10.0 mi Calm Calm - 0.00 in   Overcast
2:26 PM 72.0 °F 61.0 °F 68% 29.97 in 10.0 mi North 3.5 mph - N/A   Overcast
2:43 PM 73.0 °F 61.0 °F 66% 29.96 in 10.0 mi Calm Calm - N/A   Mostly Cloudy
2:53 PM 72.0 °F 61.0 °F 68% 29.96 in 10.0 mi East 4.6 mph - N/A   Mostly Cloudy
3:53 PM 73.0 °F 62.1 °F 68% 29.96 in 10.0 mi NE 4.6 mph - N/A   Mostly Cloudy
4:18 PM 73.9 °F 61.0 °F 64% 29.95 in 10.0 mi Calm Calm - N/A   Mostly Cloudy
4:53 PM 73.9 °F 61.0 °F 64% 29.94 in 10.0 mi Calm Calm - N/A   Mostly Cloudy
5:07 PM 75.2 °F 62.6 °F 65% 29.95 in 10.0 mi Calm Calm - N/A   Mostly Cloudy
5:15 PM 75.0 °F 62.1 °F 64% 29.95 in 10.0 mi Calm Calm - N/A   Mostly Cloudy
5:53 PM 75.9 °F 63.0 °F 64% 29.94 in 10.0 mi Variable 3.5 mph - N/A   Mostly Cloudy
6:53 PM 75.9 °F 63.0 °F 64% 29.94 in 10.0 mi NE 4.6 mph - N/A   Mostly Cloudy
7:53 PM 73.0 °F 62.1 °F 68% 29.94 in 10.0 mi Calm Calm - N/A   Partly Cloudy
8:53 PM 68.0 °F 62.1 °F 81% 29.94 in 10.0 mi Calm Calm - N/A   Mostly Cloudy
9:30 PM 69.1 °F 64.0 °F 84% 29.97 in 7.0 mi NW 12.7 mph 21.9 mph 0.00 in Rain Light Rain
9:45 PM 66.9 °F 63.0 °F 87% 29.99 in 8.0 mi NNW 17.3 mph 27.6 mph 0.02 in Rain Light Rain
9:53 PM 64.9 °F 62.1 °F 90% 29.99 in 9.0 mi NNW 12.7 mph 25.3 mph 0.02 in Rain Light Rain
10:20 PM 64.0 °F 57.9 °F 80% 30.01 in 10.0 mi NNW 13.8 mph 25.3 mph 0.00 in Rain Light Rain
10:53 PM 63.0 °F 57.0 °F 81% 30.00 in 10.0 mi NNW 12.7 mph 26.5 mph 0.00 in Rain Light Rain
11:38 PM 63.0 °F 57.0 °F 81% 30.01 in 10.0 mi NW 11.5 mph 18.4 mph 0.00 in   Overcast
11:53 PM 63.0 °F 55.9 °F 78% 30.00 in 10.0 mi NNW 10.4 mph - 0.00 in   Overcast